Flag for Colombia Weather past 2 weeks in Cúcuta, Colombia

Now
59 °F

Light rain. Mostly cloudy.


Feels Like: 59 °F
Forecast: 72 / 99 °F
Wind: 2 mph from North

Location: Rionegro / J. M. Cordova

Current Time: Jun 3, 2015 at 3:10:38 AM

Latest Report: Jun 3, 2015 at 2:00 AM


Visibility: 5 mi

Pressure: 30.26 "Hg

Humidity: 94%

Dew point: 57 °F

Location of CúcutaLocation

Historic Weather in Cúcuta — Graph

°F

Cúcuta temperature yesterday

Maximum temperature yesterday: 73 °F (at 12:00 PM)
Minimum temperature yesterday: 52 °F (at 6:00 AM)
Average temperature yesterday: 63 °F

Past Weeks' High & Low Weather Summary

 TemperatureHumidityPressure
High75 °F (May 23, 12:00 PM)100% (May 21, 1:00 AM)30.40 "Hg (May 21, 1:00 AM)
Low52 °F (Jun 2, 6:00 AM)39% (May 24, 4:00 PM)30.07 "Hg (May 20, 7:00 AM)
Average63 °F80%30.29 "Hg
* Reported May 19 2:00 AM — Jun 3 2:00 AM, Cúcuta, Weather by CustomWeather, © 2015

Note: Actual official high and low records may vary slightly from our data, if they occured in-between our weather recording intervals... More about our weather records

Advertising

Cúcuta weather history for previous 24 hours

 ConditionsComfort  
Time TempWeatherWind HumidityBarometerVisibility
2:00 AM
Wed, Jun 3
59 °FLight rain. Mostly cloudy.2 mph94%30.26 "Hg5 mi
1:00 AM59 °FPartly cloudy.No wind94%30.28 "HgN/A
12:00 AM59 °FPartly cloudy.No wind94%30.27 "HgN/A
11:00 PM
Tue, Jun 2
61 °FPassing clouds.No wind94%30.27 "HgN/A
10:00 PM61 °FPartly cloudy.No wind88%30.27 "HgN/A
9:00 PM63 °FPartly cloudy.2 mph88%30.27 "HgN/A
8:00 PM63 °FPartly cloudy.5 mph88%30.26 "HgN/A
7:00 PM63 °FPartly cloudy.6 mph88%30.23 "HgN/A
6:00 PM68 °FDrizzle. Partly sunny.12 mph69%30.19 "HgN/A
5:00 PM72 °FBroken clouds.9 mph61%30.19 "HgN/A
4:00 PM73 °FPartly sunny.9 mph50%30.19 "HgN/A
3:00 PM73 °FPartly sunny.12 mph47%30.20 "HgN/A
2:00 PM73 °FScattered clouds.12 mph47%30.23 "HgN/A
1:00 PM72 °FScattered clouds.12 mph53%30.26 "HgN/A
12:00 PM73 °FPartly sunny.12 mph47%30.27 "HgN/A
11:00 AM72 °FPartly sunny.14 mph50%30.28 "HgN/A
10:00 AM70 °FPartly sunny.9 mph60%30.29 "HgN/A
9:00 AM66 °FPartly sunny.2 mph68%30.30 "HgN/A
8:00 AM59 °FScattered clouds.2 mph88%30.30 "HgN/A
7:00 AM54 °FFog.2 mph94%30.29 "Hg1 mi
6:00 AM52 °FFog.No wind100%30.27 "Hg1 mi
5:00 AM54 °FFog.No wind100%30.26 "Hg1 mi
4:00 AM55 °FFog.No wind94%30.26 "Hg1 mi
3:00 AM55 °FPassing clouds.No wind94%30.26 "Hg6 mi
Weather by CustomWeather, © 2015

See weather overviewHow to use our weather pages